Suggestion Search

Define a bounding box (note: it will not wrap North/South over poles). If the range is zero degrees, a bounding box will not be used to constrain the search.

Centered On °   °

Match text in the suggestion title, science rationale or special notes. The search is case-insensitive. % is a wildcard (_ for a single character).

Find
Search

You may select science themes to limit query, otherwise suggestions from all themes will be returned.

Multiple values may be selected (shift + click).

  Rows per page
172 records found, displaying 101 to 172.[First/Prev] 1, 2 [Next/Last]
ID Suggestion Title Latitude Longitude Repeat Created Observation ID
75622 Escarpment at northern end of Tempe Terra 46.035 275.950 STEREO 2012-07-14 ESP_036782_2265
75620 Escarpment at northern end of Tempe Terra 46.008 275.870 STEREO 2012-07-14 ESP_028488_2265
75618 Crater with concentric layering 53.811 50.625 STEREO 2012-07-14 ESP_033876_2340
75616 Isolated knobs -4.161 59.502 STEREO 2012-07-14 ESP_029617_1760
75614 Isolated knobs -4.220 59.436 STEREO 2012-07-14 ESP_029261_1755
75612 Isolated colles unit -4.332 59.279 STEREO 2012-07-14 ESP_030896_1755
75610 Isolated colles unit -4.306 59.359 STEREO 2012-07-14 ESP_029828_1755
75608 Etched terrain north of Hellas region -24.369 60.853 STEREO 2012-07-14 ESP_030039_1555
75606 Etched terrain north of Hellas region -24.615 60.889 STEREO 2012-07-14 ESP_029116_1550
75604 Dissected fan deposit in Libya Montes -0.572 85.860 1 2012-07-14 ESP_029827_1795
75602 Dissected fan deposit in Libya Montes -0.601 85.951 1 2012-07-14 ESP_029616_1795
75600 Dissected fan deposit in Libya Montes -0.535 86.031 1 2012-07-14 ESP_029049_1795
75598 Layered outcrops in rim of crater west of Tikhonravov Crater 11.450 32.423 STEREO 2012-07-14 ESP_030119_1915
75594 Light toned outcrops in south wall of Capri Chasma -15.649 307.848 1 2012-07-13 ESP_030676_1640
71272 Dissected outcrops on crater floor -13.826 36.562 1 2012-03-18 ESP_027297_1660
70266 Possible prehnite-bearing deposits in northwest Hellas Planitia -26.294 56.189 STEREO 2012-03-03 ESP_026571_1535
70264 Possible prehnite and chlorite bearing deposits in Hellas region -26.219 56.272 STEREO 2012-03-03 ESP_028602_1535
70262 Knob in northwest Hellas Planitia -27.010 55.091 STEREO 2012-03-03 ESP_037753_1525
70226 Possible prehnite-bearing deposits in northwest Hellas Planitia -26.294 56.189 STEREO 2012-03-02 ESP_027903_1535
70224 Possible prehnite and chlorite bearing deposits in Hellas region -26.219 56.272 STEREO 2012-03-02 ESP_028536_1535
70220 Knob in northwest Hellas Planitia -27.010 55.091 STEREO 2012-03-02 ESP_028958_1525
69964 Phyllosilicate deposits in NW Hellas -26.907 55.074 STEREO 2012-02-23 ESP_028958_1525
67460 Diverse periglacial terrain -38.771 181.516 STEREO 2011-12-18
66980 Outcrops southeast of Hellas Planitia -57.763 109.688 1 2011-12-10 ESP_030222_1220
66978 Outcrops southeast of Hellas region -56.041 110.676 1 2011-12-10 ESP_029299_1235
66976 Rocky outcrop in southeast Hellas region -55.460 109.182 1 2011-12-10 ESP_029510_1240
66974 Rocky outcrop in southeast Hellas region -55.451 98.201 1 2011-12-10 ESP_030974_1240
66972 Rocky out crop southeast of Hellas Planitia -51.836 96.751 1 2011-12-10 ESP_032108_1280
66970 Rocky outcrop in southeast Hellas Planitia -52.110 95.164 1 2011-12-10 ESP_028838_1275
66968 Rocky outcrop northeast of Hellas Planitia -26.785 84.650 1 2011-12-10 ESP_026781_1530
66966 Rocky outcrop in Terra Sabaea -25.394 82.606 1 2011-12-10 ESP_026069_1545
66964 Rocky out crop in Terra Sabaea -21.963 79.969 1 2011-12-10 ESP_036539_1580
66962 Rocky outcrop in Terra Sabaea -20.129 79.354 1 2011-12-10 ESP_030869_1595
66960 Rocky outcrop in Terra Sabaea -20.087 79.247 1 2011-12-10 ESP_028456_1595
66958 Rocky out crop in Terra Sabaea in NE Hellas -20.002 79.162 1 2011-12-10
66956 Mesas in partly exhumed crater in NE Hellas -19.684 78.184 1 2011-12-10 ESP_027401_1600
66954 Mesas in partly exhumed crater in northeast Hellas Planitia -19.694 78.084 1 2011-12-10 ESP_027190_1600
66826 Light toned outcrop in north Hellas Planitia rim -25.909 57.721 1 2011-12-03 ESP_030316_1540
66818 Fresh crater in Hellas Basin with striated interior fill and pillow ejecta -32.505 48.464 1 2011-12-03 ESP_025978_1470
66688 Phyllosilicate deposits of possible hydrothermal origins in exhumed terrain -26.490 55.095 STEREO 2011-11-29 ESP_027758_1530
66686 Phyllosilicate deposits of possible hydrothermal origins in exhumed terrain -26.490 55.095 STEREO 2011-11-29 ESP_027270_1530
66684 Phyllosilicate deposits in NW Hellas -26.907 55.074 STEREO 2011-11-29 ESP_028958_1525
63604 Diverse periglacial terrain -38.771 181.516 STEREO 2011-08-14
63234 Massifs northwest of Hellas Planitia -30.935 53.690 1 2011-07-26 ESP_031226_1490
54478 Layers on wall of crater interrupting channel 18.724 346.160 STEREO 2010-10-17 ESP_031927_1990
53200 Layers on wall of crater interrupting channel 18.724 346.160 STEREO 2010-09-22 ESP_031782_1990
25870 Light-toned outcrops in Iani Chaos -3.813 341.408 STEREO 2008-07-01 ESP_016473_1760
25868 Light-toned outcrops in Iani Chaos -3.813 341.408 STEREO 2008-07-01 ESP_016328_1760
25866 Light-toned units on hummocks of chaotic terrain -4.131 341.643 STEREO 2008-07-01 PSP_010236_1760
25864 Light-toned units on hummocks of chaotic terrain -4.131 341.643 STEREO 2008-07-01 PSP_009603_1760
25862 Light-toned outcrop in hummock of Iani Chaos -1.040 342.567 STEREO 2008-07-01 ESP_013862_1790
25860 Light-toned outcrop in hummock of Iani Chaos -1.040 342.567 STEREO 2008-07-01 ESP_013717_1790
25858 Light-toned outcrop in hummock of Iani Chaos -0.669 341.995 STEREO 2008-07-01 ESP_012728_1795
25856 Light-toned outcrop in hummock of Iani Chaos -0.669 341.995 STEREO 2008-07-01 ESP_012438_1795
25850 Light-toned hummock in Iani region -0.112 342.578 STEREO 2008-07-01 ESP_012293_1800
25848 Light-toned hummock in Iani region -0.112 342.578 STEREO 2008-07-01 ESP_012016_1800
23382 Stratigraphy in Aureum Chaos -3.716 334.013 STEREO 2008-04-08 PSP_008944_1760
23380 Stratigraphy in Aureum Chaos -3.716 334.013 STEREO 2008-04-08 PSP_008443_1760
19300 Light-toned outcrops east of HiRISE image PSP_005740_1970 16.738 337.023 STEREO 2007-12-28 ESP_012214_1970
19298 Light-toned outcrops east of PSP_005740_1970 16.738 337.023 STEREO 2007-12-28 ESP_011937_1970
19108 Clay bearing unit in western Arabia region 18.207 335.472 STEREO 2007-12-19 PSP_009880_1985
19106 Clay-bearing unit in western Arabia region 18.207 335.472 STEREO 2007-12-19 PSP_009735_1985
17190 East portion of flow in Harmakhis Vallis -37.743 95.570 1 2007-11-08 ESP_012579_1420
17116 Possible collapse feature in impact crater ejecta 39.729 105.642 1 2007-11-07 ESP_011286_2200
17114 East portion of flow in Harmakhis Vallis -37.743 95.570 1 2007-11-07 ESP_012434_1420
17112 Stratigraphy of knobs in Ariadnes Colles -34.961 173.784 STEREO 2007-11-07 PSP_010717_1445
17110 Stratigraphy of knobs in Ariadnes Colles -34.961 173.784 STEREO 2007-11-07 PSP_007368_1445
11564 Inverted terrain in Mawrth Vallis region 25.917 341.573 STEREO 2007-05-29 ESP_013361_2060
11562 Inverted terrain in Mawrth Vallis region 25.917 341.573 STEREO 2007-05-29 ESP_013084_2060
11560 Layered walls of impact crater in Mawrth Vallis outcrops 23.969 339.150 STEREO 2007-05-29 ESP_017040_2045
11558 Layered walls of impact crater in Mawrth Vallis outcrops 23.969 339.150 STEREO 2007-05-29 ESP_016895_2045
11536 Possible collapse feature in impact crater ejecta 39.729 105.642 1 2007-05-25 PSP_005933_2200

Each suggestion is given a unique ID. A stereo suggestion will be made into a pair at the discretion of the Science Theme Lead.

Suggestion title.

Latitudes are expressed in planetocentric degrees.

Longitude are measured in degrees and range east from 0 to 360.

1 for a single suggestion, STEREO for a stereo suggestion, otherwise the number of suggestions in a seasonal or other repeat set.

The date on which the suggestion was created.

If the suggestion has been retired, a link to the observation page.

The username of the suggester.